Home > Weather > A Coruña > Past weeks

Flag for Spain Past Weather in A Coruña, Spain — Yesterday and Last 2 Weeks

Now
56 °F

Overcast.


Feels Like: 56 °F
Forecast: 56 / 63 °F
Wind: 3 mph from Southeast

Location: La Coruna

Current Time: May 29, 2016 at 5:56:41 AM

Latest Report: May 29, 2016 at 5:00 AM


Visibility: 10 mi

Pressure: 29.95 "Hg

Humidity: 88%

Dew Point: 53 °F

Location of A CoruñaLocation

Past Weather in A Coruña — Graph

°F

A Coruña Temperature Yesterday

Maximum temperature yesterday: 69 °F (at 4:00 PM)
Minimum temperature yesterday: 57 °F (at 11:00 AM)
Average temperature yesterday: 61 °F

High & Low Weather Summary for the Past Weeks

 TemperatureHumidityPressure
High71 °F (May 27, 2:00 PM)100% (May 14, 6:00 AM)30.33 "Hg (May 14, 6:00 AM)
Low51 °F (May 23, 7:00 AM)43% (May 27, 2:00 PM)29.78 "Hg (May 24, 6:00 PM)
Average59 °F82%30.07 "Hg
* Reported May 14 4:00 AM — May 29 4:00 AM, A Coruña, Weather by CustomWeather, © 2016

Note: Actual official high and low records may vary slightly from our data, if they occured in-between our weather recording intervals... More about our weather records

Advertising

A Coruña Weather History for the Previous 24 Hours

Scroll right to see more
 ConditionsComfort  
Time TempWeatherWind HumidityBarometerVisibility
4:00 AM
Sun, May 29
57 °FCool.5 mph86%29.95 "Hg12 mi
3:00 AM57 °FCool.3 mph85%29.96 "Hg12 mi
2:00 AM57 °FPassing clouds.6 mph82%29.96 "Hg11 mi
1:00 AM58 °FCool.10 mph83%29.96 "Hg12 mi
12:00 AM58 °FCool.12 mph85%29.95 "Hg12 mi
11:00 PM
Sat, May 28
60 °FOvercast.10 mph87%29.93 "Hg5 mi
10:00 PM61 °FLight rain. Cloudy.6 mph84%29.89 "Hg12 mi
9:00 PM62 °FCool.9 mph78%29.88 "Hg12 mi
8:00 PM61 °FCool.6 mph83%29.88 "Hg12 mi
4:00 PM69 °FMild.9 mph62%29.85 "Hg12 mi
3:00 PM66 °FMild.7 mph72%29.86 "Hg12 mi
2:00 PM64 °FLight rain. Overcast.5 mph76%29.87 "Hg10 mi
1:00 PM62 °FCool.7 mph84%29.88 "Hg12 mi
12:00 PM59 °FLight rain. Cloudy.9 mph86%29.87 "Hg12 mi
11:00 AM57 °FOvercast.6 mph96%29.87 "Hg5 mi
8:00 AM58 °FOvercast.3 mph94%29.88 "Hg6 mi
7:00 AM58 °FRain. Cloudy.1 mph93%29.88 "Hg5 mi
6:00 AM60 °FRain. Overcast.2 mph86%29.88 "Hg2 mi
5:00 AM60 °FOvercast.3 mph85%29.88 "Hg12 mi
Weather by CustomWeather, © 2016

See weather overviewHow to use our weather pages